Location: Arboyeti
(42.1122°N, 44.6017°E)
Time: 10:05:08
(UTC+00:00)

ADEOS II - Pass Details

Date: 19 April 2021
Orbit: 798 x 801 km, 98.6° (Epoch: 05 May)

Event Time Altitude Azimuth Distance (km) Brightness Sun altitude
Rises 22:33:02 0° 22° (NNE) 3,315 6.4 -32.3°
Reaches altitude 10° 22:35:34 10° 31° (NNE) 2,380 5.4 -32.1°
Enters shadow 22:39:59 35° 88° (E) 1,279 3.3 -31.7°
